Regional Weather Roundup
Issued by NWS

Home | Current Version | Previous Version | Graphics & Text | Print | Product List | Glossary On
Versions: 1 2 3 4 5 6 7 8 9 10 11 12 13 14 15 16 17 18 19 20 21 22 23 24 25 26 27 28 29 30 31 32 33 34 35 36 37 38 39 40 41 42 43 44 45 46 47 48 49 50
000
ASUS43 KOAX 202210
RWRNE

WEATHER ROUNDUP FOR NEBRASKA
NATIONAL WEATHER SERVICE OMAHA NE
500 PM CDT SUN APR 20 2014

NOTES: SATELLITE DATA IS BEING USED TO AUGMENT CLOUD COVER ABOVE
       12000 FEET.
       "FAIR" INDICATES FEW OR NO CLOUDS BELOW 12,000 FEET WITH NO
       SIGNIFICANT WEATHER AND/OR OBSTRUCTIONS TO VISIBILITY.

  * THESE STATIONS DO NOT REPORT WEATHER SUCH AS RAIN...SNOW OR FOG.

NEZ001>004-019>022-054>056-202300-
NEBRASKA PANHANDLE

CITY           SKY/WX    TMP DP  RH WIND       PRES   REMARKS
SCOTTSBLUFF    MOSUNNY   80  31  16 NW10G24   29.94F
ALLIANCE       SUNNY     78  30  17 W10G21    29.92F
CHADRON        MOSUNNY   77  33  20 NW14      29.91S
KIMBALL        SUNNY     73  25  16 NW9G17    29.98S
SIDNEY         MOSUNNY   76  32  20 VRB5      29.95F
$$

NEZ057>060-069>072-079>082-202300-
SOUTHWEST NEBRASKA

CITY           SKY/WX    TMP DP  RH WIND       PRES   REMARKS
NORTH PLATTE   PTSUNNY   75  49  39 S8        29.91F
IMPERIAL       PTSUNNY   75  46  35 VRB3      29.93F
LEXINGTON      PTSUNNY   76  51  42 SW9       29.92S
MCCOOK         CLOUDY    76  50  40 SW6       29.90F
OGALLALA       SUNNY     76  43  30 S9        29.93S
$$

NEZ005>010-023>029-035>040-094-202300-
NORTH CENTRAL NEBRASKA

CITY           SKY/WX    TMP DP  RH WIND       PRES   REMARKS
VALENTINE      SUNNY     81  39  22 S9G22     29.87F
AINSWORTH      SUNNY     81  39  22 SE10G16   29.89F
BROKEN BOW     PTSUNNY   74  48  39 S9        29.91F
O`NEILL        SUNNY     79  42  27 S7        29.90S
ORD            PTSUNNY   79  49  34 S16       29.88F
THEDFORD       MOSUNNY   80  40  23 S9        29.91F
$$

NEZ041-046>049-061>064-073>077-083>087-202300-
SOUTH CENTRAL NEBRASKA

CITY           SKY/WX    TMP DP  RH WIND       PRES   REMARKS
GRAND ISLAND   CLOUDY    78  52  40 SW12      29.92F
AURORA         CLOUDY    78  51  38 S13G18    29.91F
HASTINGS       CLOUDY    77  49  37 S5        29.91F
HEBRON         PTSUNNY   77  52  42 S18G26    29.94F
HOLDREGE       PTSUNNY   76  51  40 S8        29.91F
KEARNEY *      PTSUNNY   75  52  43 S16G22    29.92F
YORK           CLOUDY    75  52  43 S14       29.93S
$$

NEZ011>018-030>034-042>045-202300-
NORTHEAST NEBRASKA

CITY           SKY/WX    TMP DP  RH WIND       PRES   REMARKS
NORFOLK        TSTM      68  55  63 W3        29.88S
ALBION         CLOUDY    78  47  32 SW14      29.89F
BLAIR          PTSUNNY   82  49  31 SW17G24   29.91S
COLUMBUS *     CLOUDY    75  52  43 S17       29.92F
FREMONT        CLOUDY    78  49  34 W15G22    29.91S
TEKAMAH        CLOUDY    85  49  28 SW15      29.87F
$$

NEZ050>053-065>068-078-088>093-202300-
SOUTHEAST NEBRASKA

CITY           SKY/WX    TMP DP  RH WIND       PRES   REMARKS
LINCOLN        TSTM      66  58  75 SW26G32   29.99R
OMAHA EPPLEY   PTSUNNY   83  50  31 S13G20    29.89F
BEATRICE       LGT RAIN  68  59  72 W7        29.95S
FALLS CITY     CLOUDY    78  54  43 S18G28    29.94F
NEBRASKA CITY  PTSUNNY   81  51  35 SW16      29.92F
PLATTSMOUTH    PTSUNNY   82  46  28 S9        29.91F THUNDER
$$

NEZ044-045-051>053-067-202300-
OMAHA AREA

CITY           SKY/WX    TMP DP  RH WIND       PRES   REMARKS
OMAHA EPPLEY   PTSUNNY   83  50  31 S13G20    29.89F
BLAIR          PTSUNNY   82  49  31 SW17G24   29.91S
FREMONT        CLOUDY    78  49  34 W15G22    29.91S
MILLARD        CLOUDY    80  52  37 SW8       29.90F
OFFUTT AFB     PTSUNNY   82  53  35 S9        29.89F
PLATTSMOUTH    PTSUNNY   82  46  28 S9        29.91F THUNDER
WAHOO          MOCLDY    80  45  29 W15       29.91F
$$



USA.gov is the U.S. government's official web portal to all federal, state and local government web resources and services.